Simultaneous Nadir Overpasses (SNOs) Predictions

Prediction of SNOs between METOP-B and NPP Satellite Orbit:

Table of predicted SNOs for the next 14.0 days since TLE Epoch: 3/12/2022
Index Date (METOP-B) Time (METOP-B) Lat,Lon (METOP-B) SZA (METOP-B ) Date (NPP) Time (NPP) Lat,Lon (NPP) SZA (NPP ) Distance(km) Time Diff (sec)
1 03/12/2022 16:12:07 -73.56, 110.48 103.19 03/12/2022 16:11:01 -73.59, 107.35 102.98 98.58 66
2 03/12/2022 17:02:51 73.33, -82.69 76.60 03/12/2022 17:01:42 73.34, -84.78 76.74 66.57 69
3 03/12/2022 17:53:35 -73.24, 84.42 103.50 03/12/2022 17:52:24 -73.24, 82.75 103.39 53.40 71
4 03/12/2022 18:44:18 73.06,-108.63 76.33 03/12/2022 18:43:06 73.04,-109.50 76.38 28.25 72
5 03/12/2022 19:35:02 -72.96, 58.49 103.77 03/12/2022 19:33:48 -72.95, 58.02 103.74 15.23 74
6 03/12/2022 20:25:44 72.83,-134.45 76.11 03/12/2022 20:24:32 72.85,-134.45 76.13 1.36 72
7 03/12/2022 21:16:26 -72.84, 32.89 103.91 03/12/2022 21:15:16 -72.85, 32.85 103.88 2.02 70
8 03/12/2022 22:07:06 72.81,-159.83 76.06 03/12/2022 22:06:01 72.80,-159.73 76.06 3.53 65
9 03/12/2022 22:57:48 -72.81, 7.50 103.96 03/12/2022 22:56:45 -72.81, 7.57 103.96 2.52 63
10 03/12/2022 23:48:27 72.84, 174.89 76.05 03/12/2022 23:47:31 72.80, 174.88 76.03 3.77 56
11 03/13/2022 00:39:10 -72.79, -17.89 104.01 03/13/2022 00:38:15 -72.81, -17.81 103.98 3.23 55
12 03/13/2022 01:29:49 72.82, 149.50 76.01 03/13/2022 01:29:01 72.81, 149.50 76.01 0.68 48
13 03/13/2022 02:20:31 -72.82, -43.17 104.01 03/13/2022 02:19:45 -72.82, -43.20 104.00 1.05 46
14 03/13/2022 03:11:11 72.79, 124.11 75.96 03/13/2022 03:10:31 72.81, 124.11 75.99 2.41 40
15 03/13/2022 04:01:53 -72.80, -68.56 104.06 03/13/2022 04:01:15 -72.82, -68.58 104.02 2.80 38
16 03/13/2022 04:52:32 72.82, 98.83 75.95 03/13/2022 04:52:01 72.82, 98.73 75.97 3.32 31
17 03/13/2022 05:43:15 -72.77, -93.94 104.11 03/13/2022 05:42:44 -72.78, -93.86 104.10 2.66 31
18 03/13/2022 06:33:54 72.80, 73.44 75.91 03/13/2022 06:33:30 72.77, 73.45 75.89 2.71 24
19 03/13/2022 07:24:36 -72.80,-119.23 104.11 03/13/2022 07:24:14 -72.78,-119.25 104.12 2.55 22
20 03/13/2022 08:15:16 72.78, 48.05 75.86 03/13/2022 08:15:00 72.78, 48.06 75.87 0.51 16
21 03/13/2022 09:05:58 -72.78,-144.61 104.16 03/13/2022 09:05:44 -72.79,-144.63 104.15 0.91 14
22 03/13/2022 09:56:38 72.75, 22.67 75.81 03/13/2022 09:56:30 72.78, 22.68 75.84 3.52 8
23 03/13/2022 10:47:20 -72.76,-170.00 104.20 03/13/2022 10:47:13 -72.74,-169.91 104.23 3.46 7
24 03/13/2022 11:37:59 72.78, -2.61 75.81 03/13/2022 11:38:00 72.79, -2.71 75.82 3.14 1
25 03/13/2022 12:28:42 -72.73, 164.61 104.25 03/13/2022 12:28:43 -72.74, 164.70 104.25 3.17 1
26 03/13/2022 13:19:21 72.76, -28.00 75.76 03/13/2022 13:19:29 72.74, -27.98 75.74 1.70 8
27 03/13/2022 14:10:03 -72.76, 139.33 104.26 03/13/2022 14:10:13 -72.75, 139.32 104.27 1.45 10
28 03/13/2022 15:00:43 72.73, -53.39 75.71 03/13/2022 15:00:59 72.75, -53.37 75.72 1.62 16
29 03/13/2022 15:51:25 -72.74, 113.95 104.30 03/13/2022 15:51:43 -72.75, 113.93 104.29 1.73 18
30 03/13/2022 16:42:04 72.76, -78.67 75.71 03/13/2022 16:42:29 72.75, -78.75 75.70 2.97 25
31 03/13/2022 17:32:47 -72.72, 88.56 104.35 03/13/2022 17:33:12 -72.71, 88.65 104.37 3.28 25
32 03/13/2022 18:23:26 72.74,-104.06 75.66 03/13/2022 18:23:59 72.76,-104.14 75.67 3.39 33
33 03/13/2022 19:14:08 -72.74, 63.28 104.36 03/13/2022 19:14:42 -72.71, 63.27 104.39 3.41 34
34 03/13/2022 20:04:48 72.72,-129.44 75.61 03/13/2022 20:05:28 72.71,-129.42 75.60 0.97 40
35 03/13/2022 20:55:29 -72.72, 37.89 104.40 03/13/2022 20:56:11 -72.72, 37.88 104.42 0.36 42
36 03/13/2022 21:46:09 72.69,-154.83 75.56 03/13/2022 21:46:57 72.72,-154.80 75.57 2.75 48
37 03/13/2022 22:36:51 -72.70, 12.50 104.45 03/13/2022 22:37:41 -72.72, 12.50 104.44 2.76 50
38 03/13/2022 23:27:30 72.72, 179.89 75.56 03/13/2022 23:28:27 72.72, 179.81 75.55 2.49 57
39 03/14/2022 00:18:13 -72.68, -12.88 104.50 03/14/2022 00:19:10 -72.68, -12.78 104.52 3.44 57
40 03/14/2022 01:08:52 72.70, 154.50 75.51 03/14/2022 01:09:56 72.68, 154.53 75.47 2.70 64
41 03/14/2022 01:59:34 -72.70, -38.17 104.50 03/14/2022 02:00:40 -72.68, -38.16 104.54 2.33 66
42 03/14/2022 02:50:14 72.68, 129.11 75.46 03/14/2022 02:51:26 72.68, 129.15 75.45 1.26 72
43 03/14/2022 03:40:56 -72.68, -63.55 104.55 03/14/2022 03:42:10 -72.69, -63.55 104.56 0.76 74
44 03/14/2022 04:31:40 72.45, 103.32 75.24 03/14/2022 04:32:52 72.48, 104.17 75.21 29.05 72
45 03/14/2022 05:22:24 -72.35, -89.55 104.87 03/14/2022 05:23:35 -72.44, -88.42 104.86 39.21 71
46 03/14/2022 06:13:08 72.12, 77.33 74.92 03/14/2022 06:14:16 72.18, 79.39 74.85 70.69 68
47 03/14/2022 07:03:51 -72.07,-115.43 105.13 03/14/2022 07:04:59 -72.14,-113.21 105.22 76.30 68



Historial Predications of SNOs between METOP-B and NPP
